Location: Skalnate Pleso
(49.1889°N, 20.2450°E)
Time: 00:27:44
(UTC+01:00)

ADEOS Rocket - Pass Details

Date: 19 November 2019
Orbit: 858 x 1307 km, 98.7° (Epoch: 13 December)

Event Time Altitude Azimuth Distance (km) Brightness Sun altitude
Rises 05:12:22 0° 140° (SE) 4,285 7.2 -16.5°
Reaches altitude 10° 05:15:12 10° 135° (SE) 3,304 6.6 -16.0°
Maximum altitude 05:22:27 47° 65° (ENE) 1,608 4.5 -14.8°
Drops below altitude 10° 05:29:17 10° 354° (N) 3,117 5.4 -13.8°
Sets 05:31:54 0° 349° (N) 4,025 6.0 -13.3°
